Showing default

O3B FM7, 40080

Orbit data source: Space-Track

O3B FM7, 40080 is a payload satellite owned by O3B (JE) that was launched on Thu, 10 Jul 2014 UTC via a SOYUZ-ST-B launch vehicle from the French Guiana (FRGUI). Payloads include a variety of satellites, spacecraft, and rockets equipped with specific instruments for various scientific and technological missions. These include communications satellites like Starlink; space stations such as the ISS; scientific satellites like the Hubble; Earth observation satellites from companies like Planet Labs, Umbra, and HawkEye 360; GPS; miniature CubeSats for education and research; and military/defense satellites.

Loading next visibility...
O3B FM7 details
Identifier
40080, 2014-038B
Orbit
Active
Last TLE update15 hours ago
Origin
Flag of JEO3B (JE / O3B)
ManufacturerThales Alenia
MissionOperational Commercial Communications
Bus & MotorPRISMA?, LS-400 AOCS?
Mass700 kg wet, ~500 kg dry
Launch date (UTC)
2014-07-10 (10 years ago)
Launch vehicle
SOYUZ-ST-B
Launch site
French Guiana (FRGUI)
Object type
Payload
Rocket body
Debris
Shape & HBRTrap Box + 2 Pan, 12 m
Radar Cross Section21.980 m², Large (>1 m²)

Expand to show TLE details & history

TLE from 15 hours ago
0 O3B FM7
1 40080U 14038B   24361.34622393 -.00000012  00000-0  00000-0 0  9990
2 40080   0.0394 356.4411 0001206 318.1315  45.4192  5.00115307190967
Epoch: 2024-12-26T08:18Z
Definitive object data (Epoch: 2024-12-26T08:18:33.747Z)
Latitude0.0028°
Longitude140.03248°
Altitude8,063.153 km
Speed5.255 km/s
True Right ascension00h 00m 00s
True Declination0° 00' 10"
Sunlit
Object was in daylight at TLE epoch
Visualization TLE readout
Latitude0.04181°
Longitude-153.03033°
Altitude8,065.024 km
Speed5.254 km/s
Apparent Right ascension05h 45m 22s
Apparent Declination-15° 32' 00"
Sunlit
Object is in daylight
Visualization observer readout
Local Sidereal Time22:58:57
Azimuth94.908° ESE
Elevation-18.691°
Doppler factor1
Orbital elements
Apogee altitude8,070.695 km
Perigee altitude8,067.21 km
Semi-major axis14,447.089 km
Eccentricity0.0001206
Inclination0.0394°
RAAN356.4411°
Arg. of periapsis318.1315°
True anomaly45.42904°
Mean anomaly45.4192°
Eccentric anomaly45.42412°
Mean motion1.24989 °/min
BSTARUnknown
Orbital period288.02 mins
Loading maneuver chart data...
Loading historical data...
Loading historical data...
Loading historical data...
Loading historical data...
Loading historical data...
Loading historical data...
Loading historical data...
Other satellites on launch #38 in the year 2014 (2014-07-10 UTC)

O3B FM7 Visibility forecast

Observer location: undefined°, undefined

Span
Click to sort rows by Start time (UTC) header in descending order
Start Az.
Max El. time (UTC)
Max El. Az.
Max El.
End time (UTC)
End Az.
80 mins2024-12-27 03:33:36.496Z232.448° WSW2024-12-27 04:13:36.496Z179.689° S24.406°2024-12-27 04:53:36.496Z127.144° SE
78 mins2024-12-27 09:34:36.496Z231.487° WSW2024-12-27 10:13:36.496Z179.714° S24.394°2024-12-27 10:52:36.496Z128.19° SE
78 mins2024-12-27 15:34:36.496Z231.468° WSW2024-12-27 16:13:36.496Z179.733° S24.333°2024-12-27 16:52:36.496Z128.207° SE
78 mins2024-12-27 21:34:36.496Z231.44° WSW2024-12-27 22:13:36.496Z179.708° S24.346°2024-12-27 22:52:36.496Z128.146° SE
|